owner,sensor,date,latitude,longitude,vertical_datum,sea_water_temperature,qcFlag 
SCCF RECON,ioos:station:SCCF:13:1,2009-02-01T00:00:00Z,26.5255,-82.0032,2.33,17.11,2 
SCCF RECON,ioos:station:SCCF:13:1,2009-02-01T01:00:00Z,26.5255,-82.0032,2.33,17.1,2 
SCCF RECON,ioos:station:SCCF:13:1,2009-02-01T02:00:00Z,26.5255,-82.0032,2.33,17.06,2 
SCCF RECON,ioos:station:SCCF:13:1,2009-02-01T03:00:00Z,26.5255,-82.0032,2.33,16.95,2 
SCCF RECON,ioos:station:SCCF:13:1,2009-02-01T04:00:00Z,26.5255,-82.0032,2.33,16.53,2 
SCCF RECON,ioos:station:SCCF:13:1,2009-02-01T05:00:00Z,26.5255,-82.0032,2.33,16.46,2 
SCCF RECON,ioos:station:SCCF:13:1,2009-02-01T06:00:00Z,26.5255,-82.0032,2.33,16.39,2 
SCCF RECON,ioos:station:SCCF:13:1,2009-02-01T07:00:00Z,26.5255,-82.0032,2.33,16.24,2 
SCCF RECON,ioos:station:SCCF:13:1,2009-02-01T08:00:00Z,26.5255,-82.0032,2.33,16.17,2 
SCCF RECON,ioos:station:SCCF:13:1,2009-02-01T09:00:00Z,26.5255,-82.0032,2.33,16.42,2 
SCCF RECON,ioos:station:SCCF:13:1,2009-02-01T10:00:00Z,26.5255,-82.0032,2.33,16.47,2 
SCCF RECON,ioos:station:SCCF:13:1,2009-02-01T11:00:00Z,26.5255,-82.0032,2.33,16.21,2 
SCCF RECON,ioos:station:SCCF:13:1,2009-02-01T12:00:00Z,26.5255,-82.0032,2.33,16.04,2 
SCCF RECON,ioos:station:SCCF:13:1,2009-02-01T13:00:00Z,26.5255,-82.0032,2.33,15.99,2 
SCCF RECON,ioos:station:SCCF:13:1,2009-02-01T14:00:00Z,26.5255,-82.0032,2.33,15.95,2 
SCCF RECON,ioos:station:SCCF:13:1,2009-02-01T15:00:00Z,26.5255,-82.0032,2.33,15.88,2 
SCCF RECON,ioos:station:SCCF:13:1,2009-02-01T16:00:00Z,26.5255,-82.0032,2.33,15.7,2 
SCCF RECON,ioos:station:SCCF:13:1,2009-02-01T17:00:00Z,26.5255,-82.0032,2.33,15.95,2 
SCCF RECON,ioos:station:SCCF:13:1,2009-02-01T18:00:00Z,26.5255,-82.0032,2.33,16.23,2 
SCCF RECON,ioos:station:SCCF:13:1,2009-02-01T19:00:00Z,26.5255,-82.0032,2.33,16.45,2 
SCCF RECON,ioos:station:SCCF:13:1,2009-02-01T20:00:00Z,26.5255,-82.0032,2.33,16.67,2 
SCCF RECON,ioos:station:SCCF:13:1,2009-02-01T21:00:00Z,26.5255,-82.0032,2.33,16.96,2 
SCCF RECON,ioos:station:SCCF:13:1,2009-02-01T22:00:00Z,26.5255,-82.0032,2.33,17.1,2 
SCCF RECON,ioos:station:SCCF:13:1,2009-02-01T23:00:00Z,26.5255,-82.0032,2.33,17.16,2 
SCCF RECON,ioos:station:SCCF:13:1,2009-02-02T00:00:00Z,26.5255,-82.0032,2.33,17.24,2 
SCCF RECON,ioos:station:SCCF:13:1,2009-02-02T01:00:00Z,26.5255,-82.0032,2.33,17.18,2 
SCCF RECON,ioos:station:SCCF:13:1,2009-02-02T02:00:00Z,26.5255,-82.0032,2.33,17.2,2 
SCCF RECON,ioos:station:SCCF:13:1,2009-02-02T03:00:00Z,26.5255,-82.0032,2.33,17.02,2 
SCCF RECON,ioos:station:SCCF:13:1,2009-02-02T04:00:00Z,26.5255,-82.0032,2.33,16.82,2 
SCCF RECON,ioos:station:SCCF:13:1,2009-02-02T05:00:00Z,26.5255,-82.0032,2.33,16.85,2 
SCCF RECON,ioos:station:SCCF:13:1,2009-02-02T06:00:00Z,26.5255,-82.0032,2.33,16.77,2 
SCCF RECON,ioos:station:SCCF:13:1,2009-02-02T07:00:00Z,26.5255,-82.0032,2.33,16.79,2 
SCCF RECON,ioos:station:SCCF:13:1,2009-02-02T08:00:00Z,26.5255,-82.0032,2.33,16.81,2 
SCCF RECON,ioos:station:SCCF:13:1,2009-02-02T09:00:00Z,26.5255,-82.0032,2.33,16.68,2 
SCCF RECON,ioos:station:SCCF:13:1,2009-02-02T10:00:00Z,26.5255,-82.0032,2.33,16.87,2 
SCCF RECON,ioos:station:SCCF:13:1,2009-02-02T11:00:00Z,26.5255,-82.0032,2.33,16.84,2 
SCCF RECON,ioos:station:SCCF:13:1,2009-02-02T12:00:00Z,26.5255,-82.0032,2.33,16.86,2 
SCCF RECON,ioos:station:SCCF:13:1,2009-02-02T13:00:00Z,26.5255,-82.0032,2.33,16.84,2 
SCCF RECON,ioos:station:SCCF:13:1,2009-02-02T14:00:00Z,26.5255,-82.0032,2.33,16.78,2 
SCCF RECON,ioos:station:SCCF:13:1,2009-02-02T15:00:00Z,26.5255,-82.0032,2.33,16.79,2 
SCCF RECON,ioos:station:SCCF:13:1,2009-02-02T16:00:00Z,26.5255,-82.0032,2.33,16.84,2 
SCCF RECON,ioos:station:SCCF:13:1,2009-02-02T17:00:00Z,26.5255,-82.0032,2.33,17.02,2 
SCCF RECON,ioos:station:SCCF:13:1,2009-02-02T18:00:00Z,26.5255,-82.0032,2.33,17.53,2 
SCCF RECON,ioos:station:SCCF:13:1,2009-02-02T19:00:00Z,26.5255,-82.0032,2.33,17.63,2 
SCCF RECON,ioos:station:SCCF:13:1,2009-02-02T20:00:00Z,26.5255,-82.0032,2.33,17.28,2 
SCCF RECON,ioos:station:SCCF:13:1,2009-02-02T21:00:00Z,26.5255,-82.0032,2.33,17.31,2 
SCCF RECON,ioos:station:SCCF:13:1,2009-02-02T22:00:00Z,26.5255,-82.0032,2.33,17.5,2 
SCCF RECON,ioos:station:SCCF:13:1,2009-02-02T23:00:00Z,26.5255,-82.0032,2.33,17.55,2 
SCCF RECON,ioos:station:SCCF:13:1,2009-02-03T00:00:00Z,26.5255,-82.0032,2.33,17.49,2 
SCCF RECON,ioos:station:SCCF:13:1,2009-02-03T01:00:00Z,26.5255,-82.0032,2.33,17.47,2 
SCCF RECON,ioos:station:SCCF:13:1,2009-02-03T02:00:00Z,26.5255,-82.0032,2.33,17.47,2 
SCCF RECON,ioos:station:SCCF:13:1,2009-02-03T03:00:00Z,26.5255,-82.0032,2.33,17.47,2 
SCCF RECON,ioos:station:SCCF:13:1,2009-02-03T04:00:00Z,26.5255,-82.0032,2.33,17.48,2 
SCCF RECON,ioos:station:SCCF:13:1,2009-02-03T05:00:00Z,26.5255,-82.0032,2.33,17.48,2 
SCCF RECON,ioos:station:SCCF:13:1,2009-02-03T06:00:00Z,26.5255,-82.0032,2.33,17.47,2 
SCCF RECON,ioos:station:SCCF:13:1,2009-02-03T07:00:00Z,26.5255,-82.0032,2.33,17.45,2 
SCCF RECON,ioos:station:SCCF:13:1,2009-02-03T08:00:00Z,26.5255,-82.0032,2.33,17.45,2 
SCCF RECON,ioos:station:SCCF:13:1,2009-02-03T09:00:00Z,26.5255,-82.0032,2.33,17.44,2 
SCCF RECON,ioos:station:SCCF:13:1,2009-02-03T10:00:00Z,26.5255,-82.0032,2.33,17.45,2 
SCCF RECON,ioos:station:SCCF:13:1,2009-02-03T11:00:00Z,26.5255,-82.0032,2.33,17.46,2 
SCCF RECON,ioos:station:SCCF:13:1,2009-02-03T12:00:00Z,26.5255,-82.0032,2.33,17.36,2 
SCCF RECON,ioos:station:SCCF:13:1,2009-02-03T13:00:00Z,26.5255,-82.0032,2.33,17.33,2 
SCCF RECON,ioos:station:SCCF:13:1,2009-02-03T14:00:00Z,26.5255,-82.0032,2.33,17.36,2 
SCCF RECON,ioos:station:SCCF:13:1,2009-02-03T15:00:00Z,26.5255,-82.0032,2.33,17.35,2 
SCCF RECON,ioos:station:SCCF:13:1,2009-02-03T16:00:00Z,26.5255,-82.0032,2.33,17.49,2 
SCCF RECON,ioos:station:SCCF:13:1,2009-02-03T17:00:00Z,26.5255,-82.0032,2.33,17.68,2 
SCCF RECON,ioos:station:SCCF:13:1,2009-02-03T18:00:00Z,26.5255,-82.0032,2.33,17.87,2 
SCCF RECON,ioos:station:SCCF:13:1,2009-02-03T19:00:00Z,26.5255,-82.0032,2.33,17.91,2 
SCCF RECON,ioos:station:SCCF:13:1,2009-02-03T20:00:00Z,26.5255,-82.0032,2.33,17.94,2 
SCCF RECON,ioos:station:SCCF:13:1,2009-02-03T21:00:00Z,26.5255,-82.0032,2.33,18.04,2 
SCCF RECON,ioos:station:SCCF:13:1,2009-02-03T22:00:00Z,26.5255,-82.0032,2.33,17.9,2 
SCCF RECON,ioos:station:SCCF:13:1,2009-02-03T23:00:00Z,26.5255,-82.0032,2.33,17.61,2 
SCCF RECON,ioos:station:SCCF:13:1,2009-02-04T00:00:00Z,26.5255,-82.0032,2.33,17.38,2 
SCCF RECON,ioos:station:SCCF:13:1,2009-02-04T01:00:00Z,26.5255,-82.0032,2.33,17.27,2 
SCCF RECON,ioos:station:SCCF:13:1,2009-02-04T02:00:00Z,26.5255,-82.0032,2.33,17.43,2 
SCCF RECON,ioos:station:SCCF:13:1,2009-02-04T03:00:00Z,26.5255,-82.0032,2.33,17.24,2 
SCCF RECON,ioos:station:SCCF:13:1,2009-02-04T04:00:00Z,26.5255,-82.0032,2.33,17.18,2 
SCCF RECON,ioos:station:SCCF:13:1,2009-02-04T05:00:00Z,26.5255,-82.0032,2.33,17.05,2 
SCCF RECON,ioos:station:SCCF:13:1,2009-02-04T06:00:00Z,26.5255,-82.0032,2.33,17.02,2 
SCCF RECON,ioos:station:SCCF:13:1,2009-02-04T07:00:00Z,26.5255,-82.0032,2.33,17.0,2 
SCCF RECON,ioos:station:SCCF:13:1,2009-02-04T08:00:00Z,26.5255,-82.0032,2.33,16.73,2 
SCCF RECON,ioos:station:SCCF:13:1,2009-02-04T09:00:00Z,26.5255,-82.0032,2.33,16.88,2 
SCCF RECON,ioos:station:SCCF:13:1,2009-02-04T10:00:00Z,26.5255,-82.0032,2.33,16.92,2 
SCCF RECON,ioos:station:SCCF:13:1,2009-02-04T11:00:00Z,26.5255,-82.0032,2.33,16.75,2 
SCCF RECON,ioos:station:SCCF:13:1,2009-02-04T12:00:00Z,26.5255,-82.0032,2.33,16.66,2 
SCCF RECON,ioos:station:SCCF:13:1,2009-02-04T13:00:00Z,26.5255,-82.0032,2.33,16.7,2 
SCCF RECON,ioos:station:SCCF:13:1,2009-02-04T14:00:00Z,26.5255,-82.0032,2.33,16.74,2 
SCCF RECON,ioos:station:SCCF:13:1,2009-02-04T15:00:00Z,26.5255,-82.0032,2.33,16.56,2 
SCCF RECON,ioos:station:SCCF:13:1,2009-02-04T16:00:00Z,26.5255,-82.0032,2.33,16.51,2 
SCCF RECON,ioos:station:SCCF:13:1,2009-02-04T17:00:00Z,26.5255,-82.0032,2.33,16.55,2 
SCCF RECON,ioos:station:SCCF:13:1,2009-02-04T18:00:00Z,26.5255,-82.0032,2.33,16.73,2 
SCCF RECON,ioos:station:SCCF:13:1,2009-02-04T19:00:00Z,26.5255,-82.0032,2.33,16.65,2 
SCCF RECON,ioos:station:SCCF:13:1,2009-02-04T20:00:00Z,26.5255,-82.0032,2.33,17.11,2 
SCCF RECON,ioos:station:SCCF:13:1,2009-02-04T21:00:00Z,26.5255,-82.0032,2.33,16.97,2 
SCCF RECON,ioos:station:SCCF:13:1,2009-02-04T22:00:00Z,26.5255,-82.0032,2.33,16.91,2 
SCCF RECON,ioos:station:SCCF:13:1,2009-02-04T23:00:00Z,26.5255,-82.0032,2.33,16.78,2 
SCCF RECON,ioos:station:SCCF:13:1,2009-02-05T00:00:00Z,26.5255,-82.0032,2.33,16.53,2 
SCCF RECON,ioos:station:SCCF:13:1,2009-02-05T01:00:00Z,26.5255,-82.0032,2.33,16.33,2 
SCCF RECON,ioos:station:SCCF:13:1,2009-02-05T02:00:00Z,26.5255,-82.0032,2.33,16.2,2 
SCCF RECON,ioos:station:SCCF:13:1,2009-02-05T03:00:00Z,26.5255,-82.0032,2.33,16.17,2 
SCCF RECON,ioos:station:SCCF:13:1,2009-02-05T04:00:00Z,26.5255,-82.0032,2.33,15.81,2 
SCCF RECON,ioos:station:SCCF:13:1,2009-02-05T05:00:00Z,26.5255,-82.0032,2.33,15.79,2 
SCCF RECON,ioos:station:SCCF:13:1,2009-02-05T06:00:00Z,26.5255,-82.0032,2.33,15.78,2 
SCCF RECON,ioos:station:SCCF:13:1,2009-02-05T07:00:00Z,26.5255,-82.0032,2.33,15.43,2 
SCCF RECON,ioos:station:SCCF:13:1,2009-02-05T08:00:00Z,26.5255,-82.0032,2.33,15.21,2 
SCCF RECON,ioos:station:SCCF:13:1,2009-02-05T09:00:00Z,26.5255,-82.0032,2.33,15.06,2 
SCCF RECON,ioos:station:SCCF:13:1,2009-02-05T10:00:00Z,26.5255,-82.0032,2.33,15.05,2 
SCCF RECON,ioos:station:SCCF:13:1,2009-02-05T11:00:00Z,26.5255,-82.0032,2.33,14.98,2 
SCCF RECON,ioos:station:SCCF:13:1,2009-02-05T12:00:00Z,26.5255,-82.0032,2.33,14.84,2 
SCCF RECON,ioos:station:SCCF:13:1,2009-02-05T13:00:00Z,26.5255,-82.0032,2.33,14.69,2 
SCCF RECON,ioos:station:SCCF:13:1,2009-02-05T14:00:00Z,26.5255,-82.0032,2.33,14.44,2 
SCCF RECON,ioos:station:SCCF:13:1,2009-02-05T15:00:00Z,26.5255,-82.0032,2.33,14.48,2 
SCCF RECON,ioos:station:SCCF:13:1,2009-02-05T16:00:00Z,26.5255,-82.0032,2.33,14.3,2 
SCCF RECON,ioos:station:SCCF:13:1,2009-02-05T17:00:00Z,26.5255,-82.0032,2.33,13.98,2 
SCCF RECON,ioos:station:SCCF:13:1,2009-02-05T18:00:00Z,26.5255,-82.0032,2.33,13.94,2 
SCCF RECON,ioos:station:SCCF:13:1,2009-02-05T19:00:00Z,26.5255,-82.0032,2.33,14.08,2 
SCCF RECON,ioos:station:SCCF:13:1,2009-02-05T20:00:00Z,26.5255,-82.0032,2.33,14.46,2 
SCCF RECON,ioos:station:SCCF:13:1,2009-02-05T21:00:00Z,26.5255,-82.0032,2.33,14.35,2 
SCCF RECON,ioos:station:SCCF:13:1,2009-02-05T22:00:00Z,26.5255,-82.0032,2.33,14.22,2 
SCCF RECON,ioos:station:SCCF:13:1,2009-02-05T23:00:00Z,26.5255,-82.0032,2.33,14.12,2 
SCCF RECON,ioos:station:SCCF:13:1,2009-02-06T00:00:00Z,26.5255,-82.0032,2.33,14.07,2 
SCCF RECON,ioos:station:SCCF:13:1,2009-02-06T01:00:00Z,26.5255,-82.0032,2.33,14.07,2 
SCCF RECON,ioos:station:SCCF:13:1,2009-02-06T02:00:00Z,26.5255,-82.0032,2.33,13.94,2 
SCCF RECON,ioos:station:SCCF:13:1,2009-02-06T03:00:00Z,26.5255,-82.0032,2.33,13.89,2 
SCCF RECON,ioos:station:SCCF:13:1,2009-02-06T04:00:00Z,26.5255,-82.0032,2.33,13.9,2 
SCCF RECON,ioos:station:SCCF:13:1,2009-02-06T05:00:00Z,26.5255,-82.0032,2.33,13.67,2 
SCCF RECON,ioos:station:SCCF:13:1,2009-02-06T06:00:00Z,26.5255,-82.0032,2.33,13.58,2 
SCCF RECON,ioos:station:SCCF:13:1,2009-02-06T07:00:00Z,26.5255,-82.0032,2.33,13.14,2 
SCCF RECON,ioos:station:SCCF:13:1,2009-02-06T08:00:00Z,26.5255,-82.0032,2.33,12.92,2 
SCCF RECON,ioos:station:SCCF:13:1,2009-02-06T09:00:00Z,26.5255,-82.0032,2.33,12.95,2 
SCCF RECON,ioos:station:SCCF:13:1,2009-02-06T10:00:00Z,26.5255,-82.0032,2.33,13.02,2 
SCCF RECON,ioos:station:SCCF:13:1,2009-02-06T11:00:00Z,26.5255,-82.0032,2.33,13.1,2 
SCCF RECON,ioos:station:SCCF:13:1,2009-02-06T12:00:00Z,26.5255,-82.0032,2.33,13.04,2 
SCCF RECON,ioos:station:SCCF:13:1,2009-02-06T13:00:00Z,26.5255,-82.0032,2.33,12.98,2 
SCCF RECON,ioos:station:SCCF:13:1,2009-02-06T14:00:00Z,26.5255,-82.0032,2.33,12.89,2 
SCCF RECON,ioos:station:SCCF:13:1,2009-02-06T15:00:00Z,26.5255,-82.0032,2.33,12.75,2 
SCCF RECON,ioos:station:SCCF:13:1,2009-02-06T16:00:00Z,26.5255,-82.0032,2.33,12.1,2 
SCCF RECON,ioos:station:SCCF:13:1,2009-02-06T17:00:00Z,26.5255,-82.0032,2.33,12.83,2 
SCCF RECON,ioos:station:SCCF:13:1,2009-02-06T18:00:00Z,26.5255,-82.0032,2.33,12.85,2 
SCCF RECON,ioos:station:SCCF:13:1,2009-02-06T19:00:00Z,26.5255,-82.0032,2.33,13.26,2 
SCCF RECON,ioos:station:SCCF:13:1,2009-02-06T20:00:00Z,26.5255,-82.0032,2.33,13.53,2 
SCCF RECON,ioos:station:SCCF:13:1,2009-02-06T21:00:00Z,26.5255,-82.0032,2.33,13.61,2 
SCCF RECON,ioos:station:SCCF:13:1,2009-02-06T22:00:00Z,26.5255,-82.0032,2.33,13.68,2 
SCCF RECON,ioos:station:SCCF:13:1,2009-02-06T23:00:00Z,26.5255,-82.0032,2.33,13.62,2 
SCCF RECON,ioos:station:SCCF:13:1,2009-02-07T00:00:00Z,26.5255,-82.0032,2.33,13.48,2 
SCCF RECON,ioos:station:SCCF:13:1,2009-02-07T01:00:00Z,26.5255,-82.0032,2.33,13.63,2 
SCCF RECON,ioos:station:SCCF:13:1,2009-02-07T02:00:00Z,26.5255,-82.0032,2.33,13.73,2 
SCCF RECON,ioos:station:SCCF:13:1,2009-02-07T03:00:00Z,26.5255,-82.0032,2.33,13.67,2 
SCCF RECON,ioos:station:SCCF:13:1,2009-02-07T04:00:00Z,26.5255,-82.0032,2.33,13.61,2 
SCCF RECON,ioos:station:SCCF:13:1,2009-02-07T05:00:00Z,26.5255,-82.0032,2.33,13.61,2 
SCCF RECON,ioos:station:SCCF:13:1,2009-02-07T06:00:00Z,26.5255,-82.0032,2.33,13.6,2 
SCCF RECON,ioos:station:SCCF:13:1,2009-02-07T07:00:00Z,26.5255,-82.0032,2.33,13.55,2 
SCCF RECON,ioos:station:SCCF:13:1,2009-02-07T08:00:00Z,26.5255,-82.0032,2.33,13.28,2 
SCCF RECON,ioos:station:SCCF:13:1,2009-02-07T09:00:00Z,26.5255,-82.0032,2.33,13.36,2 
SCCF RECON,ioos:station:SCCF:13:1,2009-02-07T10:00:00Z,26.5255,-82.0032,2.33,13.27,2 
SCCF RECON,ioos:station:SCCF:13:1,2009-02-07T11:00:00Z,26.5255,-82.0032,2.33,13.48,2 
SCCF RECON,ioos:station:SCCF:13:1,2009-02-07T12:00:00Z,26.5255,-82.0032,2.33,13.48,2 
SCCF RECON,ioos:station:SCCF:13:1,2009-02-07T13:00:00Z,26.5255,-82.0032,2.33,13.47,2 
SCCF RECON,ioos:station:SCCF:13:1,2009-02-07T14:00:00Z,26.5255,-82.0032,2.33,13.5,2 
SCCF RECON,ioos:station:SCCF:13:1,2009-02-07T15:00:00Z,26.5255,-82.0032,2.33,13.6,2 
SCCF RECON,ioos:station:SCCF:13:1,2009-02-07T16:00:00Z,26.5255,-82.0032,2.33,13.64,2 
SCCF RECON,ioos:station:SCCF:13:1,2009-02-07T17:00:00Z,26.5255,-82.0032,2.33,13.91,2 
SCCF RECON,ioos:station:SCCF:13:1,2009-02-07T18:00:00Z,26.5255,-82.0032,2.33,14.08,2 
SCCF RECON,ioos:station:SCCF:13:1,2009-02-07T19:00:00Z,26.5255,-82.0032,2.33,14.19,2 
SCCF RECON,ioos:station:SCCF:13:1,2009-02-07T20:00:00Z,26.5255,-82.0032,2.33,14.33,2 
SCCF RECON,ioos:station:SCCF:13:1,2009-02-07T21:00:00Z,26.5255,-82.0032,2.33,14.12,2 
SCCF RECON,ioos:station:SCCF:13:1,2009-02-07T22:00:00Z,26.5255,-82.0032,2.33,14.4,2 
SCCF RECON,ioos:station:SCCF:13:1,2009-02-07T23:00:00Z,26.5255,-82.0032,2.33,14.47,2 
SCCF RECON,ioos:station:SCCF:13:1,2009-02-08T00:00:00Z,26.5255,-82.0032,2.33,14.39,2 
SCCF RECON,ioos:station:SCCF:13:1,2009-02-08T01:00:00Z,26.5255,-82.0032,2.33,14.34,2 
SCCF RECON,ioos:station:SCCF:13:1,2009-02-08T02:00:00Z,26.5255,-82.0032,2.33,14.16,2 
SCCF RECON,ioos:station:SCCF:13:1,2009-02-08T03:00:00Z,26.5255,-82.0032,2.33,14.06,2 
SCCF RECON,ioos:station:SCCF:13:1,2009-02-08T04:00:00Z,26.5255,-82.0032,2.33,14.23,2 
SCCF RECON,ioos:station:SCCF:13:1,2009-02-08T05:00:00Z,26.5255,-82.0032,2.33,14.16,2 
SCCF RECON,ioos:station:SCCF:13:1,2009-02-08T06:00:00Z,26.5255,-82.0032,2.33,14.1,2 
SCCF RECON,ioos:station:SCCF:13:1,2009-02-08T07:00:00Z,26.5255,-82.0032,2.33,14.07,2 
SCCF RECON,ioos:station:SCCF:13:1,2009-02-08T08:00:00Z,26.5255,-82.0032,2.33,14.07,2 
SCCF RECON,ioos:station:SCCF:13:1,2009-02-08T09:00:00Z,26.5255,-82.0032,2.33,13.95,2 
SCCF RECON,ioos:station:SCCF:13:1,2009-02-08T10:00:00Z,26.5255,-82.0032,2.33,13.98,2 
SCCF RECON,ioos:station:SCCF:13:1,2009-02-08T11:00:00Z,26.5255,-82.0032,2.33,13.94,2 
SCCF RECON,ioos:station:SCCF:13:1,2009-02-08T12:00:00Z,26.5255,-82.0032,2.33,14.07,2 
SCCF RECON,ioos:station:SCCF:13:1,2009-02-08T13:00:00Z,26.5255,-82.0032,2.33,14.11,2 
SCCF RECON,ioos:station:SCCF:13:1,2009-02-08T14:00:00Z,26.5255,-82.0032,2.33,14.2,2 
SCCF RECON,ioos:station:SCCF:13:1,2009-02-08T15:00:00Z,26.5255,-82.0032,2.33,14.33,2 
SCCF RECON,ioos:station:SCCF:13:1,2009-02-08T16:00:00Z,26.5255,-82.0032,2.33,14.51,2 
SCCF RECON,ioos:station:SCCF:13:1,2009-02-08T17:00:00Z,26.5255,-82.0032,2.33,14.66,2 
SCCF RECON,ioos:station:SCCF:13:1,2009-02-08T18:00:00Z,26.5255,-82.0032,2.33,14.86,2 
SCCF RECON,ioos:station:SCCF:13:1,2009-02-08T19:00:00Z,26.5255,-82.0032,2.33,14.9,2 
SCCF RECON,ioos:station:SCCF:13:1,2009-02-08T20:00:00Z,26.5255,-82.0032,2.33,14.95,2 
SCCF RECON,ioos:station:SCCF:13:1,2009-02-08T21:00:00Z,26.5255,-82.0032,2.33,15.1,2 
SCCF RECON,ioos:station:SCCF:13:1,2009-02-08T22:00:00Z,26.5255,-82.0032,2.33,15.37,2 
SCCF RECON,ioos:station:SCCF:13:1,2009-02-08T23:00:00Z,26.5255,-82.0032,2.33,15.64,2 
SCCF RECON,ioos:station:SCCF:13:1,2009-02-09T00:00:00Z,26.5255,-82.0032,2.33,15.94,2 
SCCF RECON,ioos:station:SCCF:13:1,2009-02-09T01:00:00Z,26.5255,-82.0032,2.33,15.6,2 
SCCF RECON,ioos:station:SCCF:13:1,2009-02-09T02:00:00Z,26.5255,-82.0032,2.33,15.38,2 
SCCF RECON,ioos:station:SCCF:13:1,2009-02-09T03:00:00Z,26.5255,-82.0032,2.33,15.13,2 
SCCF RECON,ioos:station:SCCF:13:1,2009-02-09T04:00:00Z,26.5255,-82.0032,2.33,15.03,2 
SCCF RECON,ioos:station:SCCF:13:1,2009-02-09T05:00:00Z,26.5255,-82.0032,2.33,14.97,2 
SCCF RECON,ioos:station:SCCF:13:1,2009-02-09T06:00:00Z,26.5255,-82.0032,2.33,14.87,2 
SCCF RECON,ioos:station:SCCF:13:1,2009-02-09T07:00:00Z,26.5255,-82.0032,2.33,14.83,2 
SCCF RECON,ioos:station:SCCF:13:1,2009-02-09T08:00:00Z,26.5255,-82.0032,2.33,14.79,2 
SCCF RECON,ioos:station:SCCF:13:1,2009-02-09T09:00:00Z,26.5255,-82.0032,2.33,14.81,2 
SCCF RECON,ioos:station:SCCF:13:1,2009-02-09T10:00:00Z,26.5255,-82.0032,2.33,14.77,2 
SCCF RECON,ioos:station:SCCF:13:1,2009-02-09T11:00:00Z,26.5255,-82.0032,2.33,14.74,2 
SCCF RECON,ioos:station:SCCF:13:1,2009-02-09T12:00:00Z,26.5255,-82.0032,2.33,14.81,2 
SCCF RECON,ioos:station:SCCF:13:1,2009-02-09T13:00:00Z,26.5255,-82.0032,2.33,14.93,2 
SCCF RECON,ioos:station:SCCF:13:1,2009-02-09T14:00:00Z,26.5255,-82.0032,2.33,15.04,2 
SCCF RECON,ioos:station:SCCF:13:1,2009-02-09T15:00:00Z,26.5255,-82.0032,2.33,15.19,2 
SCCF RECON,ioos:station:SCCF:13:1,2009-02-09T16:00:00Z,26.5255,-82.0032,2.33,15.38,2 
SCCF RECON,ioos:station:SCCF:13:1,2009-02-09T17:00:00Z,26.5255,-82.0032,2.33,15.57,2 
SCCF RECON,ioos:station:SCCF:13:1,2009-02-09T18:00:00Z,26.5255,-82.0032,2.33,15.59,2 
SCCF RECON,ioos:station:SCCF:13:1,2009-02-09T19:00:00Z,26.5255,-82.0032,2.33,15.7,2 
SCCF RECON,ioos:station:SCCF:13:1,2009-02-09T20:00:00Z,26.5255,-82.0032,2.33,15.82,2 
SCCF RECON,ioos:station:SCCF:13:1,2009-02-09T21:00:00Z,26.5255,-82.0032,2.33,15.93,2 
SCCF RECON,ioos:station:SCCF:13:1,2009-02-09T22:00:00Z,26.5255,-82.0032,2.33,16.07,2 
SCCF RECON,ioos:station:SCCF:13:1,2009-02-09T23:00:00Z,26.5255,-82.0032,2.33,16.32,2 
SCCF RECON,ioos:station:SCCF:13:1,2009-02-10T00:00:00Z,26.5255,-82.0032,2.33,16.55,2 
SCCF RECON,ioos:station:SCCF:13:1,2009-02-10T01:00:00Z,26.5255,-82.0032,2.33,16.65,2 
SCCF RECON,ioos:station:SCCF:13:1,2009-02-10T02:00:00Z,26.5255,-82.0032,2.33,16.67,2 
SCCF RECON,ioos:station:SCCF:13:1,2009-02-10T03:00:00Z,26.5255,-82.0032,2.33,16.2,2 
SCCF RECON,ioos:station:SCCF:13:1,2009-02-10T04:00:00Z,26.5255,-82.0032,2.33,16.04,2 
SCCF RECON,ioos:station:SCCF:13:1,2009-02-10T05:00:00Z,26.5255,-82.0032,2.33,15.79,2 
SCCF RECON,ioos:station:SCCF:13:1,2009-02-10T06:00:00Z,26.5255,-82.0032,2.33,15.78,2 
SCCF RECON,ioos:station:SCCF:13:1,2009-02-10T07:00:00Z,26.5255,-82.0032,2.33,15.69,2 
SCCF RECON,ioos:station:SCCF:13:1,2009-02-10T08:00:00Z,26.5255,-82.0032,2.33,15.63,2 
SCCF RECON,ioos:station:SCCF:13:1,2009-02-10T09:00:00Z,26.5255,-82.0032,2.33,15.62,2 
SCCF RECON,ioos:station:SCCF:13:1,2009-02-10T10:00:00Z,26.5255,-82.0032,2.33,15.69,2 
SCCF RECON,ioos:station:SCCF:13:1,2009-02-10T11:00:00Z,26.5255,-82.0032,2.33,15.77,2 
SCCF RECON,ioos:station:SCCF:13:1,2009-02-10T12:00:00Z,26.5255,-82.0032,2.33,15.84,2 
SCCF RECON,ioos:station:SCCF:13:1,2009-02-10T13:00:00Z,26.5255,-82.0032,2.33,15.89,2 
SCCF RECON,ioos:station:SCCF:13:1,2009-02-10T14:00:00Z,26.5255,-82.0032,2.33,16.04,2 
SCCF RECON,ioos:station:SCCF:13:1,2009-02-10T15:00:00Z,26.5255,-82.0032,2.33,16.23,2 
SCCF RECON,ioos:station:SCCF:13:1,2009-02-10T16:00:00Z,26.5255,-82.0032,2.33,16.46,2 
SCCF RECON,ioos:station:SCCF:13:1,2009-02-10T17:00:00Z,26.5255,-82.0032,2.33,16.66,2 
SCCF RECON,ioos:station:SCCF:13:1,2009-02-10T18:00:00Z,26.5255,-82.0032,2.33,16.72,2 
SCCF RECON,ioos:station:SCCF:13:1,2009-02-10T19:00:00Z,26.5255,-82.0032,2.33,17.01,2 
SCCF RECON,ioos:station:SCCF:13:1,2009-02-10T20:00:00Z,26.5255,-82.0032,2.33,16.92,2 
SCCF RECON,ioos:station:SCCF:13:1,2009-02-10T21:00:00Z,26.5255,-82.0032,2.33,17.05,2 
SCCF RECON,ioos:station:SCCF:13:1,2009-02-10T22:00:00Z,26.5255,-82.0032,2.33,17.1,2 
SCCF RECON,ioos:station:SCCF:13:1,2009-02-10T23:00:00Z,26.5255,-82.0032,2.33,17.16,2 
SCCF RECON,ioos:station:SCCF:13:1,2009-02-11T00:00:00Z,26.5255,-82.0032,2.33,17.4,2 
SCCF RECON,ioos:station:SCCF:13:1,2009-02-11T01:00:00Z,26.5255,-82.0032,2.33,18.0,2 
SCCF RECON,ioos:station:SCCF:13:1,2009-02-11T02:00:00Z,26.5255,-82.0032,2.33,17.74,2 
SCCF RECON,ioos:station:SCCF:13:1,2009-02-11T03:00:00Z,26.5255,-82.0032,2.33,17.67,2 
SCCF RECON,ioos:station:SCCF:13:1,2009-02-11T04:00:00Z,26.5255,-82.0032,2.33,17.46,2 
SCCF RECON,ioos:station:SCCF:13:1,2009-02-11T05:00:00Z,26.5255,-82.0032,2.33,17.32,2 
SCCF RECON,ioos:station:SCCF:13:1,2009-02-11T06:00:00Z,26.5255,-82.0032,2.33,17.09,2 
SCCF RECON,ioos:station:SCCF:13:1,2009-02-11T07:00:00Z,26.5255,-82.0032,2.33,16.83,2 
SCCF RECON,ioos:station:SCCF:13:1,2009-02-11T08:00:00Z,26.5255,-82.0032,2.33,16.76,2 
SCCF RECON,ioos:station:SCCF:13:1,2009-02-11T09:00:00Z,26.5255,-82.0032,2.33,16.7,2 
SCCF RECON,ioos:station:SCCF:13:1,2009-02-11T10:00:00Z,26.5255,-82.0032,2.33,16.68,2 
SCCF RECON,ioos:station:SCCF:13:1,2009-02-11T11:00:00Z,26.5255,-82.0032,2.33,16.76,2 
SCCF RECON,ioos:station:SCCF:13:1,2009-02-11T12:00:00Z,26.5255,-82.0032,2.33,16.9,2 
SCCF RECON,ioos:station:SCCF:13:1,2009-02-11T13:00:00Z,26.5255,-82.0032,2.33,16.99,2 
SCCF RECON,ioos:station:SCCF:13:1,2009-02-11T14:00:00Z,26.5255,-82.0032,2.33,17.15,2 
SCCF RECON,ioos:station:SCCF:13:1,2009-02-11T15:00:00Z,26.5255,-82.0032,2.33,17.42,2 
SCCF RECON,ioos:station:SCCF:13:1,2009-02-11T16:00:00Z,26.5255,-82.0032,2.33,17.72,2 
SCCF RECON,ioos:station:SCCF:13:1,2009-02-11T17:00:00Z,26.5255,-82.0032,2.33,17.89,2 
SCCF RECON,ioos:station:SCCF:13:1,2009-02-11T18:00:00Z,26.5255,-82.0032,2.33,17.99,2 
SCCF RECON,ioos:station:SCCF:13:1,2009-02-11T19:00:00Z,26.5255,-82.0032,2.33,18.01,2 
SCCF RECON,ioos:station:SCCF:13:1,2009-02-11T20:00:00Z,26.5255,-82.0032,2.33,17.97,2 
SCCF RECON,ioos:station:SCCF:13:1,2009-02-11T21:00:00Z,26.5255,-82.0032,2.33,18.03,2 
SCCF RECON,ioos:station:SCCF:13:1,2009-02-11T22:00:00Z,26.5255,-82.0032,2.33,18.1,2 
SCCF RECON,ioos:station:SCCF:13:1,2009-02-11T23:00:00Z,26.5255,-82.0032,2.33,18.23,2 
SCCF RECON,ioos:station:SCCF:13:1,2009-02-12T00:00:00Z,26.5255,-82.0032,2.33,18.37,2 
SCCF RECON,ioos:station:SCCF:13:1,2009-02-12T01:00:00Z,26.5255,-82.0032,2.33,18.65,2 
SCCF RECON,ioos:station:SCCF:13:1,2009-02-12T02:00:00Z,26.5255,-82.0032,2.33,18.91,2 
SCCF RECON,ioos:station:SCCF:13:1,2009-02-12T03:00:00Z,26.5255,-82.0032,2.33,18.8,2 
SCCF RECON,ioos:station:SCCF:13:1,2009-02-12T04:00:00Z,26.5255,-82.0032,2.33,18.86,2 
SCCF RECON,ioos:station:SCCF:13:1,2009-02-12T05:00:00Z,26.5255,-82.0032,2.33,18.86,2 
SCCF RECON,ioos:station:SCCF:13:1,2009-02-12T06:00:00Z,26.5255,-82.0032,2.33,18.77,2 
SCCF RECON,ioos:station:SCCF:13:1,2009-02-12T07:00:00Z,26.5255,-82.0032,2.33,18.5,2 
SCCF RECON,ioos:station:SCCF:13:1,2009-02-12T08:00:00Z,26.5255,-82.0032,2.33,18.38,2 
SCCF RECON,ioos:station:SCCF:13:1,2009-02-12T09:00:00Z,26.5255,-82.0032,2.33,18.01,2 
SCCF RECON,ioos:station:SCCF:13:1,2009-02-12T10:00:00Z,26.5255,-82.0032,2.33,17.92,2 
SCCF RECON,ioos:station:SCCF:13:1,2009-02-12T11:00:00Z,26.5255,-82.0032,2.33,18.01,2 
SCCF RECON,ioos:station:SCCF:13:1,2009-02-12T12:00:00Z,26.5255,-82.0032,2.33,18.29,2 
SCCF RECON,ioos:station:SCCF:13:1,2009-02-12T13:00:00Z,26.5255,-82.0032,2.33,18.48,2 